Location: Ciochowice
(50.4289°N, 18.5217°E)
Time: 05:19:49
(UTC+01:00)

ISS - Pass Details

Date: 31 January 2019
Orbit: 403 x 411 km, 51.6° (Epoch: 23 February)

Event Time Altitude Azimuth Distance (km) Brightness Sun altitude
Rises 19:45:29 0° 285° (WNW) 2,342 1.2 -30.1°
Reaches altitude 10° 19:47:35 10° 284° (WNW) 1,480 -0.1 -30.4°
Enters shadow 19:48:03 13° 283° (WNW) 1,289 -0.5 -30.5°
